timestamp,surface_pressure_avg,surface_temp_avg,battery_voltage,lat,long
2018-04-02 00:00:00+00:00,400.6597,1.8,12.57,47.84626,-54.09684
2018-04-02 00:10:00+00:00,403.6229,1.8,12.57,47.84626,-54.09684
2018-04-02 00:20:00+00:00,403.3229,1.8,12.57,47.84626,-54.09684
2018-04-02 00:30:00+00:00,406.5229,1.8,12.57,47.84626,-54.09684
2018-04-02 00:40:00+00:00,407.6062,1.8,12.57,47.84626,-54.09684
2018-04-02 00:50:00+00:00,402.0295,1.8,12.57,47.84626,-54.09684
2018-04-02 01:00:00+00:00,405.2262,1.8,12.57,47.84626,-54.09684
2018-04-02 01:10:00+00:00,409.6595,1.8,12.57,47.84626,-54.09684
2018-04-02 01:20:00+00:00,399.1262,1.8,12.57,47.84626,-54.09684
2018-04-02 01:30:00+00:00,389.4113,1.79,12.57,47.84626,-54.09684
2018-04-02 01:40:00+00:00,386.5929,1.79,12.57,47.84626,-54.09684
2018-04-02 01:50:00+00:00,390.4362,1.8,12.57,47.84626,-54.09684
2018-04-02 02:00:00+00:00,386.1629,1.79,12.57,47.84626,-54.09684
2018-04-02 02:10:00+00:00,378.8096,1.78,12.57,47.84626,-54.09684
2018-04-02 02:20:00+00:00,377.198,1.79,12.57,47.84626,-54.09684
2018-04-02 02:30:00+00:00,377.3463,1.79,12.57,47.84626,-54.09684
2018-04-02 02:40:00+00:00,368.838,1.79,12.57,47.84626,-54.09684
2018-04-02 02:50:00+00:00,358.4896,1.79,12.57,47.84626,-54.09684
2018-04-02 03:00:00+00:00,354.1763,1.79,12.57,47.84626,-54.09684
2018-04-02 03:10:00+00:00,346.4546,1.79,12.57,47.84626,-54.09684
2018-04-02 03:20:00+00:00,330.8979,1.79,12.57,47.84626,-54.09684
2018-04-02 03:30:00+00:00,318.8497,1.78,12.57,47.84626,-54.09684
2018-04-02 03:40:00+00:00,313.0513,1.79,12.57,47.84626,-54.09684
2018-04-02 03:50:00+00:00,298.6613,1.77,12.57,47.84626,-54.09684
2018-04-02 04:00:00+00:00,280.2864,1.77,12.57,47.84626,-54.09684
2018-04-02 04:10:00+00:00,271.9131,1.79,12.57,47.84626,-54.09684
2018-04-02 04:20:00+00:00,266.7114,1.8,12.57,47.84626,-54.09684
2018-04-02 04:30:00+00:00,252.4764,1.8,12.57,47.84626,-54.09684
2018-04-02 04:40:00+00:00,233.6631,1.8,12.57,47.84626,-54.09684
2018-04-02 04:50:00+00:00,228.3115,1.8,12.57,47.84626,-54.09684
2018-04-02 05:00:00+00:00,221.8164,1.8,12.57,47.84626,-54.09684
2018-04-02 05:10:00+00:00,208.9081,1.8,12.57,47.84626,-54.09684
2018-04-02 05:20:00+00:00,203.5298,1.8,12.57,47.84626,-54.09684
2018-04-02 05:30:00+00:00,205.2881,1.8,12.57,47.84626,-54.09684
2018-04-02 05:40:00+00:00,199.1515,1.8,12.57,47.84626,-54.09684
2018-04-02 05:50:00+00:00,197.0698,1.8,12.57,47.84626,-54.09684
2018-04-02 06:00:00+00:00,204.7948,1.8,12.57,47.84626,-54.09684
2018-04-02 06:10:00+00:00,205.4981,1.8,12.57,47.84626,-54.09684
2018-04-02 06:20:00+00:00,199.3165,1.9,12.57,47.84626,-54.09684
2018-04-02 06:30:00+00:00,198.8448,1.9,12.57,47.84626,-54.09684
2018-04-02 06:40:00+00:00,201.9665,1.89,12.57,47.84626,-54.09684
2018-04-02 06:50:00+00:00,198.6598,1.89,12.57,47.84626,-54.09684
2018-04-02 07:00:00+00:00,198.1548,1.9,12.57,47.84626,-54.09684
2018-04-02 07:10:00+00:00,203.2698,1.89,12.57,47.84626,-54.09684
2018-04-02 07:20:00+00:00,200.6015,1.89,12.57,47.84626,-54.09684
2018-04-02 07:30:00+00:00,199.1732,1.9,12.57,47.84626,-54.09684
2018-04-02 07:40:00+00:00,206.9665,1.9,12.57,47.84626,-54.09684
2018-04-02 07:50:00+00:00,209.1248,1.9,12.57,47.84626,-54.09684
2018-04-02 08:00:00+00:00,207.5281,1.93,12.57,47.84626,-54.09684
2018-04-02 08:10:00+00:00,211.5881,1.93,12.57,47.84626,-54.09684
2018-04-02 08:20:00+00:00,216.3197,1.95,12.57,47.84626,-54.09684
2018-04-02 08:30:00+00:00,218.8264,1.99,12.57,47.84626,-54.09684
2018-04-02 08:40:00+00:00,224.4481,1.98,12.57,47.84626,-54.09684
2018-04-02 08:50:00+00:00,226.6798,1.96,12.57,47.84626,-54.09684
2018-04-02 09:00:00+00:00,226.3131,1.99,12.57,47.84626,-54.09684
2018-04-02 09:10:00+00:00,229.6548,2.0,12.57,47.84626,-54.09684
2018-04-02 09:20:00+00:00,238.3031,1.99,12.57,47.84626,-54.09684
2018-04-02 09:30:00+00:00,245.6097,1.95,12.57,47.84626,-54.09684
2018-04-02 09:40:00+00:00,250.9314,1.9,12.57,47.84626,-54.09684
2018-04-02 09:50:00+00:00,257.1048,1.91,12.57,47.84626,-54.09684
2018-04-02 10:00:00+00:00,264.3581,1.95,12.57,47.84626,-54.09684
2018-04-02 10:10:00+00:00,271.5948,1.99,12.57,47.84626,-54.09684
2018-04-02 10:20:00+00:00,276.5181,2.0,12.57,47.84626,-54.09684
2018-04-02 10:30:00+00:00,279.4597,2.0,12.57,47.84626,-54.09684
2018-04-02 10:40:00+00:00,284.1314,2.0,12.57,47.84626,-54.09684
2018-04-02 10:50:00+00:00,291.2347,2.0,12.57,47.84626,-54.09684
2018-04-02 11:00:00+00:00,298.133,2.0,12.57,47.84626,-54.09684
2018-04-02 11:10:00+00:00,306.9763,2.0,12.57,47.84626,-54.09684
2018-04-02 11:20:00+00:00,310.038,2.0,12.65,47.84626,-54.09684
2018-04-02 11:30:00+00:00,319.493,2.0,12.65,47.84626,-54.09684
2018-04-02 11:40:00+00:00,329.053,2.0,12.65,47.84626,-54.09684
2018-04-02 11:50:00+00:00,339.7112,2.0,12.57,47.84626,-54.09684
2018-04-02 12:00:00+00:00,344.6979,2.0,12.57,47.84626,-54.09684
2018-04-02 12:10:00+00:00,348.1379,2.0,12.73,47.84626,-54.09684
2018-04-02 12:20:00+00:00,352.3163,2.0,12.65,47.84626,-54.09684
2018-04-02 12:30:00+00:00,355.8596,2.0,12.57,47.84626,-54.09684
2018-04-02 12:40:00+00:00,358.8513,2.0,12.57,47.84626,-54.09684
2018-04-02 12:50:00+00:00,360.2463,2.0,12.57,47.84626,-54.09684
2018-04-02 13:00:00+00:00,361.3729,2.0,12.57,47.84626,-54.09684
2018-04-02 13:10:00+00:00,360.6512,1.99,12.57,47.84626,-54.09684
2018-04-02 13:20:00+00:00,362.4946,1.99,12.57,47.84626,-54.09684
2018-04-02 13:30:00+00:00,363.8079,1.99,12.57,47.84626,-54.09684
2018-04-02 13:40:00+00:00,359.9713,1.95,12.57,47.84626,-54.09684
2018-04-02 13:50:00+00:00,356.5179,1.9,12.57,47.84626,-54.09684
2018-04-02 14:00:00+00:00,350.4662,1.9,12.57,47.84626,-54.09684
2018-04-02 14:10:00+00:00,347.5563,1.9,12.57,47.84626,-54.09684
2018-04-02 14:20:00+00:00,345.4163,1.9,12.57,47.84626,-54.09684
2018-04-02 14:30:00+00:00,341.6512,1.9,12.57,47.84626,-54.09684
2018-04-02 14:40:00+00:00,334.8846,1.9,12.57,47.84626,-54.09684
2018-04-02 14:50:00+00:00,330.5863,1.9,12.57,47.84626,-54.09684
2018-04-02 15:00:00+00:00,327.9413,1.88,12.57,47.84626,-54.09684
2018-04-02 15:10:00+00:00,318.1381,1.8,12.57,47.84626,-54.09684
2018-04-02 15:20:00+00:00,310.6897,1.8,12.57,47.84626,-54.09684
2018-04-02 15:30:00+00:00,301.9313,1.8,12.57,47.84626,-54.09684
2018-04-02 15:40:00+00:00,293.0314,1.8,12.57,47.84626,-54.09684
2018-04-02 15:50:00+00:00,279.2881,1.8,12.57,47.84626,-54.09684
2018-04-02 16:00:00+00:00,269.5298,1.8,12.57,47.84626,-54.09684
2018-04-02 16:10:00+00:00,259.9897,1.8,12.57,47.84626,-54.09684
2018-04-02 16:20:00+00:00,247.8514,1.8,12.57,47.84626,-54.09684
2018-04-02 16:30:00+00:00,235.6564,1.8,12.57,47.84626,-54.09684
2018-04-02 16:40:00+00:00,227.5914,1.8,12.57,47.84626,-54.09684
2018-04-02 16:50:00+00:00,217.7098,1.79,12.57,47.84626,-54.09684
2018-04-02 17:00:00+00:00,202.0948,1.78,12.57,47.84626,-54.09684
2018-04-02 17:10:00+00:00,189.7065,1.76,12.57,47.84626,-54.09684
2018-04-02 17:20:00+00:00,183.2515,1.73,12.57,47.84626,-54.09684
2018-04-02 17:30:00+00:00,172.7032,1.7,12.57,47.84626,-54.09684
2018-04-02 17:40:00+00:00,164.0315,1.7,12.57,47.84626,-54.09684
2018-04-02 17:50:00+00:00,162.9765,1.7,12.57,47.84626,-54.09684
2018-04-02 18:00:00+00:00,163.3565,1.7,12.57,47.84626,-54.09684
2018-04-02 18:10:00+00:00,159.2581,1.71,12.57,47.84626,-54.09684
2018-04-02 18:20:00+00:00,155.4265,1.72,12.57,47.84626,-54.09684
2018-04-02 18:30:00+00:00,158.6565,1.7,12.57,47.84626,-54.09684
2018-04-02 18:40:00+00:00,162.4415,1.7,12.57,47.84626,-54.09684
2018-04-02 18:50:00+00:00,160.3315,1.7,12.57,47.84626,-54.09684
2018-04-02 19:00:00+00:00,159.2599,1.74,12.57,47.84626,-54.09684
2018-04-02 19:10:00+00:00,163.5098,1.76,12.57,47.84626,-54.09684
2018-04-02 19:20:00+00:00,168.1698,1.79,12.57,47.84626,-54.09684
2018-04-02 19:30:00+00:00,166.8331,1.8,12.57,47.84626,-54.09684
2018-04-02 19:40:00+00:00,170.6682,1.87,12.57,47.84626,-54.09684
2018-04-02 19:50:00+00:00,181.6798,1.83,12.57,47.84626,-54.09684
2018-04-02 20:00:00+00:00,184.8914,1.88,12.57,47.84626,-54.09684
2018-04-02 20:10:00+00:00,186.9798,1.89,12.57,47.84626,-54.09684
2018-04-02 20:20:00+00:00,196.2198,1.9,12.57,47.84626,-54.09684
2018-04-02 20:30:00+00:00,202.1515,1.94,12.57,47.84626,-54.09684
2018-04-02 20:40:00+00:00,201.8331,2.0,12.57,47.84626,-54.09684
2018-04-02 20:50:00+00:00,206.8564,2.0,12.57,47.84626,-54.09684
2018-04-02 21:00:00+00:00,218.4714,1.99,12.57,47.84626,-54.09684
2018-04-02 21:10:00+00:00,225.7181,2.0,12.57,47.84626,-54.09684
2018-04-02 21:20:00+00:00,231.7181,1.99,12.57,47.84626,-54.09684
2018-04-02 21:30:00+00:00,238.8064,1.99,12.57,47.84626,-54.09684
2018-04-02 21:40:00+00:00,246.2964,1.99,12.57,47.84626,-54.09684
2018-04-02 21:50:00+00:00,251.4314,2.0,12.57,47.84626,-54.09684
2018-04-02 22:00:00+00:00,256.7464,2.0,12.57,47.84626,-54.09684
2018-04-02 22:10:00+00:00,265.7947,2.0,12.57,47.84626,-54.09684
2018-04-02 22:20:00+00:00,276.1981,2.09,12.57,47.84626,-54.09684
2018-04-02 22:30:00+00:00,277.7114,2.1,12.57,47.84626,-54.09684
2018-04-02 22:40:00+00:00,282.2714,2.1,12.57,47.84626,-54.09684
2018-04-02 22:50:00+00:00,293.7147,2.19,12.57,47.84626,-54.09684
2018-04-02 23:00:00+00:00,301.343,2.2,12.57,47.84626,-54.09684
2018-04-02 23:10:00+00:00,305.1746,2.2,12.57,47.84626,-54.09684
2018-04-02 23:20:00+00:00,315.268,2.2,12.57,47.84626,-54.09684
2018-04-02 23:30:00+00:00,322.0096,2.2,12.57,47.84626,-54.09684
2018-04-02 23:40:00+00:00,321.398,2.2,12.57,47.84626,-54.09684
2018-04-02 23:50:00+00:00,326.4364,2.09,12.57,47.84626,-54.09684
